Location: G�rlitz
(51.1670°N, 15.0000°E)
Time: 13:45:44
(UTC+01:00)

ARIANE 6 FM1 Upper Stage - Visible Passes

Search period start: 17 February 2026 00:00
Search period end: 27 February 2026 00:00
Orbit: 522 x 608 km, 62.0° (Epoch: 17 February)

Date Brightness Start Highest point End Pass type
(mag) Time Alt. Az. Time Alt. Az. Time Alt. Az.
17 Feb 2.7 18:39:46 10° NW 18:43:43 73° SW 18:47:30 11° SE visible
17 Feb 5.5 20:20:46 10° W 20:22:01 11° WSW 20:23:16 10° SW visible
18 Feb 3.3 18:39:46 10° NW 18:43:38 52° SW 18:47:29 10° SSE visible
19 Feb 4.0 18:39:50 10° WNW 18:43:31 37° SW 18:47:11 10° SSE visible
20 Feb 4.7 18:39:58 10° WNW 18:43:21 27° SW 18:46:43 10° S visible
21 Feb 5.3 18:40:15 10° WNW 18:43:08 20° WSW 18:46:02 10° SSW visible
22 Feb 5.6 18:40:46 10° W 18:42:53 14° WSW 18:45:01 10° SSW visible
